Regional Weather Roundup
Issued by NWS Sioux Falls, SD

Home | Current Version | Previous Version | Graphics & Text | Print | Product List | Glossary Off
Versions: 1 2 3 4 5 6 7 8 9 10 11 12 13 14 15 16 17 18 19 20 21 22 23 24 25 26 27 28 29 30 31 32 33 34 35 36 37 38 39 40 41 42 43 44 45 46 47 48 49 50

000
ASUS43 KFSD 210810
RWRFSD

WEATHER ROUNDUP FOR SE SOUTH DAKOTA/SW MINNESOTA/NW IOWA
NATIONAL WEATHER SERVICE SIOUX FALLS SD
300 AM CDT SAT OCT 21 2017

NOTE: "FAIR" INDICATES FEW OR NO CLOUDS BELOW 12,000 FEET WITH NO
SIGNIFICANT WEATHER AND OR OBSTRUCTIONS TO VISIBILITY.


SDZ038>040-050-052>070-210900-
SOUTHEAST SOUTH DAKOTA

CITY           SKY/WX    TMP DP  RH WIND       PRES   REMARKS
BROOKINGS      MOCLDY    65  57  75 S22G29    29.51S
CHAMBERLAIN    CLOUDY    67  60  78 S15       29.42R
HURON          PTCLDY    66  58  75 S17G25    29.42S
MADISON        FAIR      63  61  94 S21G32    29.51F
MITCHELL       CLOUDY    68  58  70 S16G25    29.45S
SIOUX FALLS    PTCLDY    66  58  75 S20G32    29.53F
WINNER         FAIR      66  57  72 SW15G28   29.42R
YANKTON        MOCLDY    67  58  72 SE16G25   29.51F
$$

MNZ071-072-080-081-089-090-097-098-210900-
SOUTHWEST MINNESOTA

CITY           SKY/WX    TMP DP  RH WIND       PRES   REMARKS
FAIRMONT       CLOUDY    62  54  74 S20       29.67F
JACKSON        PTCLDY    59  54  82 S16       29.65F
LUVERNE        CLOUDY    63  54  72 S12G21    29.58F
MARSHALL       CLOUDY    65  57  75 S21G28    29.54S
MONTEVIDEO     CLOUDY    64  57  77 S13G23    29.54S
PIPESTONE      PTCLDY    63  55  77 S18G25    29.56S
REDWOOD FALLS  CLOUDY    64  55  72 S20G29    29.59S
TRACY          CLOUDY    64  58  80 S20G29    29.56F
WORTHINGTON    CLOUDY    63  56  78 S18G26    29.61F
$$

IAZ001>003-012>014-020>022-031-032-NEZ013-014-SDZ071-210900-
NORTHWEST IOWA

CITY           SKY/WX    TMP DP  RH WIND       PRES   REMARKS
CHEROKEE       CLOUDY    64  58  81 S17G23    29.63F
DENISON        CLOUDY    63  57  82 S22G37    29.69R HAZE
ESTHERVILLE    CLOUDY    60  56  86 S15G25    29.66F
LE MARS        CLOUDY    66  59  77 S23G38    29.57F
ORANGE CITY    CLOUDY    66  61  82 S17G23    29.59F
SHELDON        CLOUDY    64  57  77 S14G24    29.59F
SIOUX CITY     CLOUDY    66  59  78 S17G25    29.58F
SPENCER        CLOUDY    64  56  75 S22G33    29.64F
STORM LAKE     CLOUDY    63  55  77 S18G30    29.66S
$$

ABBREVIATIONS USED IN REMARKS
   TC - TEMPERATURE IN CELSIUS
  WCI - WIND CHILL INDEX
   HX - HEAT INDEX
  VSB - VISIBILITY





USA.gov is the U.S. government's official web portal to all federal, state and local government web resources and services.